Location: ASU Dark Sky Observatory
(36.2504°N, 81.4125°W)
Time: 13:11:44
(UTC-05:00)

Amateur Radio Satellites - All Passes

Search period start: 22 January 2017 12:41
Search period end: 23 January 2017 12:41
Location: ASU Dark Sky Observatory, 36.2504°N, 81.4125°W

Satellite Date Start Highest point End Downlink Frequencies (MHz)
Time Altitude Azimuth
QB50P2 22 Jan 12:43:10 12:43:55 10° 268° (W) 12:44:40 145.880/145.840
CUSAT 1 22 Jan 12:46:23 12:51:37 19° 64° (ENE) 12:56:32 437.405
ESTCUBE 1 22 Jan 12:46:33 12:50:20 26° 290° (WNW) 12:54:04 437.505/2401.250
VELOX 1 22 Jan 12:47:49 12:52:11 72° 286° (WNW) 12:56:33 145.980
SPROUT 22 Jan 13:00:16 13:04:30 68° 284° (WNW) 13:08:43 437.525
AO-7 22 Jan 13:02:08 13:05:40 13° 50° (NE) 13:09:12 29.400- 29.500
UKube-1 22 Jan 13:07:24 13:11:40 60° 101° (E) 13:15:54 .
DX 1 22 Jan 13:12:39 13:17:00 83° 283° (WNW) 13:21:19 434.975-435.025
Oscar 19 22 Jan 13:14:14 13:19:26 81° 257° (WSW) 13:24:40 437.125/150
AIST 1 22 Jan 13:19:05 13:22:50 28° 90° (E) 13:26:34
Cosmos 2504 22 Jan 13:22:50 13:27:34 16° 80° (E) 13:32:09 435.465 / 435.565
JUGNU 22 Jan 13:25:04 13:27:36 13° 171° (S) 13:30:08 437.505
Cosmos 2491 22 Jan 13:25:23 13:34:12 77° 82° (E) 13:43:02 435.465 / 435.565
YUBILEINY 22 Jan 13:27:51 13:35:39 37° 86° (E) 13:43:29 435.215
CUBEBUG 1 22 Jan 13:30:14 13:32:38 15° 294° (WNW) 13:35:01 437.445
AO-85 22 Jan 13:38:42 13:43:31 77° 300° (WNW) 13:47:58 145.980
Gurwin Techsat 1B 22 Jan 13:45:58 13:51:16 78° 257° (WSW) 13:56:36 435.225
AISAT 22 Jan 13:52:42 13:54:55 14° 294° (WNW) 13:57:05 437.250
DANDE 22 Jan 13:56:30 14:02:55 26° 70° (ENE) 14:09:30 436.750
50 SAT 22 Jan 13:57:30 13:58:08 10° 293° (WNW) 13:58:45 437.505
ITUPSAT 1 22 Jan 13:57:31 13:59:04 11° 91° (E) 14:00:36 437.325
ITAMSAT 1 22 Jan 14:02:54 14:07:17 29° 68° (ENE) 14:11:42 435.822/435.867
TISAT 1 22 Jan 14:20:20 14:24:27 61° 285° (WNW) 14:28:34 437.305
CUSAT 1 22 Jan 14:26:33 14:34:33 84° 265° (W) 14:41:35 437.405
BEESAT 22 Jan 14:28:28 14:32:31 27° 97° (E) 14:36:31 436.000
SWISSCUBE 22 Jan 14:30:10 14:34:26 31° 97° (E) 14:38:41 437.505
UKube-1 22 Jan 14:46:03 14:47:08 11° 296° (WNW) 14:48:14 .
AO-7 22 Jan 14:48:36 14:56:51 67° 69° (ENE) 15:05:09 29.400- 29.500
AIST 1 22 Jan 14:57:11 15:00:24 20° 285° (WNW) 15:03:36
BEESAT 3 22 Jan 15:10:49 15:14:03 26° 112° (ESE) 15:17:22 437.485
Cosmos 2504 22 Jan 15:11:11 15:19:55 87° 274° (W) 15:28:10 435.465 / 435.565
JUGNU 22 Jan 15:12:27 15:15:48 16° 181° (S) 15:19:09 437.505
YUBILEINY 22 Jan 15:23:58 15:32:13 44° 284° (WNW) 15:40:33 435.215
Cosmos 2491 22 Jan 15:24:17 15:30:00 20° 280° (W) 15:35:43 435.465 / 435.565
ITUPSAT 1 22 Jan 15:32:30 15:37:15 64° 286° (WNW) 15:42:00 437.325
O/OREOS (USA 219) 22 Jan 15:34:12 15:38:09 29° 63° (ENE) 15:42:06 437.305
DANDE 22 Jan 15:38:05 15:46:08 70° 265° (W) 15:54:18 436.750
MOZHAYETS 4 22 Jan 15:40:37 15:45:07 48° 99° (E) 15:49:36
ITAMSAT 1 22 Jan 15:42:11 15:46:39 29° 263° (W) 15:51:08 435.822/435.867
M-CUBED/EXP-1 PRIME 22 Jan 15:59:38 16:01:41 15° 100° (E) 16:03:42 437.505
BEESAT 2 22 Jan 16:00:10 16:03:50 40° 115° (ESE) 16:07:35 435.950
KKS-1 22 Jan 16:04:05 16:07:41 24° 96° (E) 16:11:16 437.445
BEESAT 22 Jan 16:06:08 16:10:11 28° 291° (WNW) 16:14:13 436.000
SWISSCUBE 22 Jan 16:08:13 16:12:02 24° 292° (WNW) 16:15:51 437.505
HORYU 2 22 Jan 16:10:00 16:12:48 17° 66° (ENE) 16:15:37 437.375
CUSAT 1 22 Jan 16:11:24 16:15:06 14° 281° (W) 16:18:38 437.405
GOMX 1 22 Jan 16:15:18 16:19:09 20° 68° (ENE) 16:22:52 467.674
BRITE-PL 22 Jan 16:21:17 16:26:52 58° 74° (ENE) 16:32:22 437.365/2234.400
SO-50 22 Jan 16:29:32 16:33:59 58° 58° (ENE) 16:38:22 436.795
CUBESAT XI-V 22 Jan 16:33:07 16:36:58 25° 95° (E) 16:40:47 437.345
AUBIESAT-1 22 Jan 16:33:22 16:36:27 36° 104° (ESE) 16:39:31 437.475
AO-7 22 Jan 16:43:44 16:50:05 24° 265° (W) 16:56:31 29.400- 29.500
DOVE 4 22 Jan 16:43:53 16:46:21 14° 66° (ENE) 16:48:44 437.250
SRMSAT 22 Jan 16:46:14 16:49:36 15° 176° (S) 16:52:59 437.500
BEESAT 3 22 Jan 16:48:32 16:51:37 22° 308° (NW) 16:54:45 437.485
STARS 22 Jan 16:50:21 16:54:22 35° 98° (E) 16:58:22 437.465
JUGNU 22 Jan 17:01:58 17:04:00 12° 191° (S) 17:06:03 437.505
CUTE-I 22 Jan 17:09:22 17:13:52 29° 68° (ENE) 17:18:22 437.470
Cosmos 2504 22 Jan 17:09:37 17:14:16 15° 293° (WNW) 17:18:49 435.465 / 435.565
O/OREOS (USA 219) 22 Jan 17:13:52 17:17:21 22° 259° (WSW) 17:20:51 437.305
LilacSat-2 22 Jan 17:15:54 17:19:05 26° 72° (ENE) 17:22:18 437.200
MOZHAYETS 4 22 Jan 17:19:09 17:21:50 15° 294° (WNW) 17:24:31
DANDE 22 Jan 17:24:50 17:27:35 12° 280° (W) 17:30:21 436.750
M-CUBED/EXP-1 PRIME 22 Jan 17:33:38 17:36:09 20° 294° (WNW) 17:38:38 437.505
BEESAT 2 22 Jan 17:39:16 17:41:48 16° 311° (NW) 17:44:22 435.950
KKS-1 22 Jan 17:40:29 17:44:09 26° 291° (WNW) 17:47:49 437.445
HORYU 2 22 Jan 17:44:54 17:49:00 39° 261° (W) 17:53:09 437.375
HO-68 22 Jan 17:45:27 17:50:04 19° 58° (ENE) 17:54:41 435.675
GOMX 1 22 Jan 17:51:42 17:56:53 46° 261° (W) 18:01:52 467.674
Cubesat XI-IV 22 Jan 17:52:24 17:57:41 74° 75° (ENE) 18:03:01 437.490
NOAA 15 22 Jan 17:52:39 17:57:56 79° 74° (ENE) 18:03:16 137.62
CINEMA 3 22 Jan 17:54:54 17:57:26 15° 68° (ENE) 17:59:56 145.822/145.860
BRITE-PL 22 Jan 18:01:54 18:05:34 17° 268° (W) 18:09:14 437.365/2234.400
CUBESAT XI-V 22 Jan 18:10:18 18:14:15 28° 290° (WNW) 18:18:11 437.345
SO-50 22 Jan 18:12:08 18:13:53 12° 253° (WSW) 18:15:38 436.795
NOAA 18 22 Jan 18:16:14 18:21:42 69° 73° (ENE) 18:27:10 137.9125
DOVE 4 22 Jan 18:18:39 18:23:35 58° 260° (W) 18:28:16 437.250
GONETS M04 22 Jan 18:19:05 18:23:52 16° 78° (ENE) 18:28:39
AIST 2 22 Jan 18:19:51 18:23:08 24° 111° (ESE) 18:26:28 435.215
STARS 22 Jan 18:27:27 18:30:25 18° 293° (WNW) 18:33:23 437.465
CUTE 1.7 + AOD 2 22 Jan 18:32:09 18:35:23 21° 69° (ENE) 18:38:38 437.475
SRMSAT 22 Jan 18:34:46 18:38:00 15° 186° (S) 18:41:14 437.500
CUTE-I 22 Jan 18:49:07 18:53:47 31° 263° (W) 18:58:28 437.470
LilacSat-2 22 Jan 18:50:55 18:53:22 17° 266° (W) 18:55:50 437.200
CANX-2 22 Jan 19:00:50 19:04:59 55° 75° (ENE) 19:09:10 2200.000
SEEDS 22 Jan 19:06:59 19:10:50 35° 72° (ENE) 19:14:42 437.485
COMPASS 1 22 Jan 19:08:09 19:11:29 23° 70° (ENE) 19:14:50 437.405
STRAND 1 22 Jan 19:16:33 19:21:19 37° 98° (E) 19:26:03 437.568
AAUSAT CUBESAT 2 22 Jan 19:16:57 19:20:12 22° 70° (ENE) 19:23:28 437.432
Cosmos 2499 22 Jan 19:17:39 19:25:51 56° 91° (E) 19:33:28 435.465 / 435.565
HO-68 22 Jan 19:29:44 19:36:56 79° 255° (WSW) 19:44:11 435.675
CINEMA 3 22 Jan 19:30:06 19:34:16 40° 261° (W) 19:38:18 145.822/145.860
Cubesat XI-IV 22 Jan 19:36:36 19:38:14 11° 269° (W) 19:39:53 437.490
NOAA 15 22 Jan 19:37:23 19:38:15 10° 270° (W) 19:39:05 137.62
Oscar 11 22 Jan 19:40:48 19:43:29 16° 67° (ENE) 19:46:12 145.826/435.025
AIST 2 22 Jan 19:57:57 20:01:28 27° 307° (NW) 20:05:03 435.215
NOAA 18 22 Jan 20:00:16 20:02:47 13° 268° (W) 20:05:18 137.9125
ISS 22 Jan 20:00:20 20:00:57 10° 127° (SE) 20:01:34 145.825
CUTE 1.7 + AOD 2 22 Jan 20:07:24 20:11:02 27° 264° (W) 20:14:41 437.475
CUBEBUG 2 22 Jan 20:07:42 20:11:51 70° 259° (W) 20:15:59 437.445
GONETS M04 22 Jan 20:10:41 20:19:24 87° 275° (W) 20:28:13
DELFI C3 22 Jan 20:13:56 20:15:07 11° 66° (ENE) 20:16:18 145.870
FUNcube-1 22 Jan 20:19:09 20:23:06 47° 74° (ENE) 20:27:06 145.935
UWE-3 22 Jan 20:30:46 20:34:50 61° 259° (W) 20:38:57 435.000/436.395/437.385
HUMSAT D 22 Jan 20:35:11 20:36:13 11° 65° (ENE) 20:37:14 437.325/437.525
CANX-2 22 Jan 20:40:30 20:41:08 10° 269° (W) 20:41:47 2200.000
PRISM 22 Jan 20:41:25 20:42:38 11° 92° (E) 20:43:51 437.425
COMPASS 1 22 Jan 20:43:29 20:46:54 24° 265° (W) 20:50:21 437.405
ZACube-1 22 Jan 20:43:36 20:47:42 76° 257° (WSW) 20:51:52 437.345
SEEDS 22 Jan 20:43:58 20:46:36 16° 267° (W) 20:49:16 437.485
AAUSAT CUBESAT 2 22 Jan 20:52:03 20:55:30 25° 264° (W) 20:59:00 437.432
STRAND 1 22 Jan 20:56:14 21:00:13 23° 293° (WNW) 21:04:13 437.568
Cosmos 2499 22 Jan 21:12:27 21:19:13 27° 287° (WNW) 21:25:40 435.465 / 435.565
Oscar 11 22 Jan 21:15:17 21:19:17 38° 262° (W) 21:23:20 145.826/435.025
HO-68 22 Jan 21:23:56 21:25:34 11° 271° (W) 21:27:12 435.675
ISS 22 Jan 21:33:47 21:37:01 61° 321° (NW) 21:40:14 145.825
JAS-2 22 Jan 21:41:14 21:43:34 11° 88° (E) 21:45:56 435.910
DELFI C3 22 Jan 21:45:32 21:49:25 50° 261° (W) 21:53:21 145.870
UNISAT 6 22 Jan 21:49:57 21:53:39 25° 96° (E) 21:57:23 437.425
BY70-1 22 Jan 21:51:45 21:53:31 14° 68° (ENE) 21:55:20 436.1900
FUNcube-1 22 Jan 21:58:24 21:59:36 11° 269° (W) 22:00:48 145.935
TIGRISAT 22 Jan 22:02:13 22:06:13 31° 98° (E) 22:10:16 435.000
HUMSAT D 22 Jan 22:07:17 22:11:17 54° 260° (W) 22:15:22 437.325/437.525
ESTCUBE 1 22 Jan 22:07:29 22:10:29 18° 67° (ENE) 22:13:31 437.505/2401.250
GONETS M04 22 Jan 22:12:46 22:17:30 15° 296° (WNW) 22:22:18
AO-85 22 Jan 22:12:56 22:16:34 36° 56° (NE) 22:20:12 145.980
PRISM 22 Jan 22:14:13 22:18:09 47° 287° (WNW) 22:22:04 437.425
ANTELSAT 22 Jan 22:17:51 22:22:13 51° 100° (E) 22:26:41 437.575/2403.000
CUBEBUG 1 22 Jan 22:46:08 22:49:48 26° 70° (ENE) 22:53:27 437.445
QB50P2 22 Jan 22:54:00 22:54:44 10° 92° (E) 22:55:27 145.880/145.840
50 SAT 22 Jan 22:56:02 22:57:16 11° 67° (ENE) 22:58:30 437.505
RS-15 22 Jan 22:58:43 23:10:10 63° 112° (ESE) 23:22:10 29.354- 29.394
PCSat 22 Jan 23:05:28 23:08:53 17° 104° (ESE) 23:12:17 145.827
AISAT 22 Jan 23:09:22 23:13:17 31° 71° (ENE) 23:17:11 437.250
POPSAT HIP 1 22 Jan 23:12:57 23:15:42 17° 94° (E) 23:18:27 437.405
ISS 22 Jan 23:13:03 23:14:02 11° 338° (NNW) 23:15:03 145.825
DUCHIFAT 1 22 Jan 23:20:17 23:23:06 17° 94° (E) 23:25:55 145.980
BY70-1 22 Jan 23:21:12 23:23:32 20° 265° (W) 23:26:00 436.1900
JAS-2 22 Jan 23:21:54 23:29:20 75° 102° (ESE) 23:37:11 435.910
UNISAT 6 22 Jan 23:26:30 23:30:15 27° 290° (WNW) 23:34:04 437.425
NANOSAT C BR1 22 Jan 23:26:48 23:30:11 23° 96° (E) 23:33:33 145.865
TIGRISAT 22 Jan 23:39:19 23:42:41 21° 291° (WNW) 23:46:07 435.000
VELOX 1 22 Jan 23:41:59 23:46:24 70° 75° (ENE) 23:50:50 145.980
ESTCUBE 1 22 Jan 23:42:44 23:46:58 39° 262° (W) 23:51:13 437.505/2401.250
YUBILEINY 22 Jan 23:42:50 23:47:25 15° 64° (ENE) 23:51:59 435.215
BUGSAT 1 22 Jan 23:45:51 23:46:27 10° 92° (E) 23:47:02 437.445
SPROUT 22 Jan 23:50:39 23:54:50 62° 76° (ENE) 23:59:03 437.525
AO-85 22 Jan 23:54:28 23:56:36 14° 250° (WSW) 23:58:45 145.980
ANTELSAT 22 Jan 23:56:12 23:58:30 14° 294° (WNW) 00:00:48 437.575/2403.000
UKube-1 22 Jan 23:59:14 00:03:11 35° 71° (ENE) 00:07:07 .
DX 1 23 Jan 00:05:10 00:09:28 59° 74° (ENE) 00:13:47 434.975-435.025
QB50P1 23 Jan 00:20:11 00:24:23 71° 285° (WNW) 00:28:36 145.935-145.965
BEESAT 2 23 Jan 00:21:29 00:23:28 13° 47° (NE) 00:25:25 435.950
CUBEBUG 1 23 Jan 00:22:26 00:25:59 24° 264° (W) 00:29:33 437.445
POLYITAN 1 23 Jan 00:25:16 00:29:27 61° 285° (WNW) 00:33:38 437.675
QB50P2 23 Jan 00:26:40 00:30:48 54° 285° (WNW) 00:34:56 145.880/145.840
50 SAT 23 Jan 00:26:47 00:30:06 36° 262° (W) 00:33:26 437.505
Cosmos 2491 23 Jan 00:31:09 00:35:56 16° 78° (ENE) 00:40:42 435.465 / 435.565
PHONESAT 2.4 23 Jan 00:38:23 00:40:33 50° 156° (SSE) 00:42:43 2401.200-2431.200
AISAT 23 Jan 00:46:25 00:49:44 20° 265° (W) 00:53:03 437.250
PCSat 23 Jan 00:46:27 00:51:45 56° 300° (WNW) 00:57:05 145.827
POPSAT HIP 1 23 Jan 00:47:43 00:51:32 34° 288° (WNW) 00:55:22 437.405
DUCHIFAT 1 23 Jan 00:55:04 00:58:49 32° 288° (WNW) 01:02:35 145.980
NANOSAT C BR1 23 Jan 01:02:22 01:05:48 25° 290° (WNW) 01:09:15 145.865
ITUPSAT 1 23 Jan 01:02:46 01:03:55 11° 62° (ENE) 01:05:04 437.325
AIST 1 23 Jan 01:05:25 01:09:41 76° 83° (E) 01:13:55
BEESAT 3 23 Jan 01:06:40 01:10:41 90° 226° (SW) 01:14:40 437.485
JAS-2 23 Jan 01:08:23 01:13:39 22° 297° (WNW) 01:19:10 435.910
Cosmos 2504 23 Jan 01:08:31 01:14:26 26° 72° (ENE) 01:20:12 435.465 / 435.565
TISAT 1 23 Jan 01:08:51 01:12:59 66° 75° (ENE) 01:17:07 437.305
RS-15 23 Jan 01:12:16 01:23:17 41° 315° (NW) 01:34:43 29.354- 29.394
BUGSAT 1 23 Jan 01:18:07 01:22:02 50° 286° (WNW) 01:25:59 437.445
Oscar 19 23 Jan 01:28:40 01:33:35 43° 99° (E) 01:38:27 437.125/150
BEESAT 23 Jan 01:32:35 01:36:19 24° 68° (ENE) 01:40:05 436.000
SWISSCUBE 23 Jan 01:34:14 01:38:13 27° 69° (ENE) 01:42:13 437.505
UKube-1 23 Jan 01:36:27 01:39:16 17° 266° (W) 01:42:06 .
YUBILEINY 23 Jan 01:36:42 01:45:34 84° 84° (E) 01:54:20 435.215
DX 1 23 Jan 01:45:38 01:45:58 10° 268° (W) 01:46:18 434.975-435.025
CUSAT 1 23 Jan 01:46:10 01:48:35 13° 78° (ENE) 01:51:13 437.405
BEESAT 2 23 Jan 01:57:36 02:01:35 57° 244° (WSW) 02:05:31 435.950
Gurwin Techsat 1B 23 Jan 02:04:54 02:10:06 52° 100° (E) 02:15:15 435.225
PHONESAT 2.4 23 Jan 02:12:27 02:14:28 29° 351° (N) 02:16:29 2401.200-2431.200
ITAMSAT 1 23 Jan 02:20:05 02:22:02 12° 91° (E) 02:23:59 435.822/435.867
Cosmos 2491 23 Jan 02:22:47 02:31:30 86° 278° (W) 02:40:16 435.465 / 435.565
ITUPSAT 1 23 Jan 02:36:19 02:41:04 74° 258° (WSW) 02:45:51 437.325
MOZHAYETS 4 23 Jan 02:39:56 02:44:01 33° 71° (ENE) 02:48:08
M-CUBED/EXP-1 PRIME 23 Jan 02:42:38 02:45:42 19° 65° (ENE) 02:48:37 437.505
AO-7 23 Jan 02:54:20 03:00:52 25° 95° (E) 03:07:19 29.400- 29.500
KKS-1 23 Jan 03:00:17 03:03:11 17° 67° (ENE) 03:06:04 437.445
Cosmos 2504 23 Jan 03:01:08 03:08:02 48° 270° (W) 03:14:48 435.465 / 435.565
DANDE 23 Jan 03:04:22 03:06:29 14° 80° (E) 03:08:53 436.750
Oscar 19 23 Jan 03:08:50 03:12:33 20° 294° (WNW) 03:16:14 437.125/150
BEESAT 23 Jan 03:09:42 03:13:54 31° 263° (W) 03:18:08 436.000
SWISSCUBE 23 Jan 03:11:54 03:15:54 27° 264° (W) 03:19:55 437.505
AUBIESAT-1 23 Jan 03:15:55 03:19:47 35° 69° (ENE) 03:23:27 437.475
CUSAT 1 23 Jan 03:24:00 03:29:08 74° 281° (W) 03:35:52 437.405
RS-15 23 Jan 03:33:35 03:40:46 17° 347° (NNW) 03:48:02 29.354- 29.394
CUBESAT XI-V 23 Jan 03:34:15 03:37:34 19° 67° (ENE) 03:40:54 437.345
YUBILEINY 23 Jan 03:36:02 03:41:08 17° 281° (WNW) 03:46:15 435.215
STARS 23 Jan 03:44:45 03:48:12 23° 69° (ENE) 03:51:39 437.465
Gurwin Techsat 1B 23 Jan 03:46:04 03:49:35 18° 295° (WNW) 03:53:06 435.225
PHONESAT 2.4 23 Jan 03:46:37 03:48:36 27° 7° (N) 03:50:35 2401.200-2431.200
ITAMSAT 1 23 Jan 03:56:44 04:01:56 69° 286° (WNW) 04:07:06 435.822/435.867
ISS 23 Jan 04:03:48 04:06:56 45° 37° (NE) 04:10:04 145.825
M-CUBED/EXP-1 PRIME 23 Jan 04:15:59 04:19:57 33° 257° (WSW) 04:23:41 437.505
MOZHAYETS 4 23 Jan 04:17:51 04:21:12 20° 266° (W) 04:24:36
AIST 2 23 Jan 04:20:46 04:25:01 87° 56° (NE) 04:29:15 435.215
Cosmos 2491 23 Jan 04:24:55 04:29:37 15° 296° (WNW) 04:34:20 435.465 / 435.565
BRITE-PL 23 Jan 04:30:41 04:34:02 20° 92° (E) 04:37:15 437.365/2234.400
KKS-1 23 Jan 04:35:15 04:39:24 39° 261° (W) 04:43:34 437.445
DANDE 23 Jan 04:44:40 04:48:21 38° 287° (WNW) 04:53:13 436.750
AO-7 23 Jan 04:45:50 04:54:04 65° 292° (WNW) 05:02:15 29.400- 29.500
AUBIESAT-1 23 Jan 04:51:28 04:54:12 17° 260° (W) 04:56:49 437.475
CUBESAT XI-V 23 Jan 05:10:16 05:14:37 38° 262° (W) 05:19:02 437.345
Cosmos 2499 23 Jan 05:15:01 05:17:55 13° 65° (ENE) 05:20:50 435.465 / 435.565
PHONESAT 2.4 23 Jan 05:20:20 05:22:33 65° 202° (SSW) 05:24:44 2401.200-2431.200
STARS 23 Jan 05:20:41 05:24:23 27° 263° (W) 05:28:07 437.465
CUTE-I 23 Jan 05:30:16 05:32:51 14° 92° (E) 05:35:25 437.470
HORYU 2 23 Jan 05:37:56 05:42:14 45° 100° (E) 05:46:30 437.375
ISS 23 Jan 05:41:18 05:43:06 14° 232° (SW) 05:44:54 145.825
O/OREOS (USA 219) 23 Jan 05:43:25 05:47:47 56° 106° (ESE) 05:52:09 437.305
RS-15 23 Jan 05:51:40 06:00:22 21° 25° (NNE) 06:08:55 29.354- 29.394
GOMX 1 23 Jan 05:56:35 06:00:53 66° 100° (E) 06:05:00 467.674
BRITE-PL 23 Jan 06:08:26 06:12:39 32° 290° (WNW) 06:16:34 437.365/2234.400
NOAA 15 23 Jan 06:10:46 06:15:39 36° 98° (E) 06:20:30 137.62
Cubesat XI-IV 23 Jan 06:12:31 06:17:26 36° 98° (E) 06:22:19 437.490
DOVE 4 23 Jan 06:20:21 06:24:18 42° 99° (E) 06:28:14 437.250
GONETS M04 23 Jan 06:24:30 06:32:47 42° 76° (ENE) 06:41:00
LilacSat-2 23 Jan 06:25:03 06:28:54 59° 100° (E) 06:32:43 437.200
STRAND 1 23 Jan 06:29:50 06:34:34 41° 71° (ENE) 06:39:20 437.568
SO-50 23 Jan 06:41:08 06:45:26 35° 114° (ESE) 06:49:41 436.795
NOAA 18 23 Jan 06:41:14 06:46:14 35° 98° (E) 06:51:11 137.9125
AO-7 23 Jan 06:42:00 06:45:12 13° 311° (NW) 06:48:24 29.400- 29.500
CANX-2 23 Jan 06:50:33 06:52:07 12° 91° (E) 06:53:42 2200.000
HO-68 23 Jan 07:01:32 07:06:59 23° 94° (E) 07:12:23 435.675
Cosmos 2499 23 Jan 07:04:55 07:12:02 88° 264° (W) 07:19:09 435.465 / 435.565
CUTE-I 23 Jan 07:07:59 07:13:16 64° 286° (WNW) 07:18:33 437.470
HORYU 2 23 Jan 07:15:49 07:18:22 15° 294° (WNW) 07:20:55 437.375
O/OREOS (USA 219) 23 Jan 07:25:28 07:27:32 13° 303° (WNW) 07:29:36 437.305
CINEMA 3 23 Jan 07:26:34 07:30:42 52° 100° (E) 07:35:00 145.822/145.860
NOAA 15 23 Jan 07:50:56 07:55:11 25° 293° (WNW) 07:59:25 137.62
Cubesat XI-IV 23 Jan 07:52:58 07:57:16 25° 293° (WNW) 08:01:36 437.490
CUTE 1.7 + AOD 2 23 Jan 07:54:03 07:58:18 59° 100° (E) 08:02:31 437.475
DOVE 4 23 Jan 07:59:39 08:01:37 13° 294° (WNW) 08:03:35 437.250
CUBEBUG 2 23 Jan 08:00:51 08:04:41 28° 97° (E) 08:08:36 437.445
RS-15 23 Jan 08:04:08 08:16:20 60° 54° (NE) 08:28:00 29.354- 29.394
STRAND 1 23 Jan 08:10:10 08:13:51 20° 266° (W) 08:17:35 437.568
FUNcube-1 23 Jan 08:11:19 08:13:01 12° 92° (E) 08:14:44 145.935
GONETS M04 23 Jan 08:21:30 08:29:25 39° 273° (W) 08:37:20
SO-50 23 Jan 08:22:03 08:25:56 25° 309° (NW) 08:29:47 436.795
NOAA 18 23 Jan 08:22:12 08:26:41 27° 293° (WNW) 08:31:10 137.9125
UWE-3 23 Jan 08:22:37 08:26:35 31° 97° (E) 08:30:37 435.000/436.395/437.385
CANX-2 23 Jan 08:24:03 08:28:13 49° 286° (WNW) 08:32:21 2200.000
COMPASS 1 23 Jan 08:27:49 08:32:00 62° 101° (E) 08:36:08 437.405
SEEDS 23 Jan 08:28:25 08:32:42 81° 281° (W) 08:36:54 437.485
ZACube-1 23 Jan 08:34:31 08:38:12 25° 96° (E) 08:41:55 437.345
AAUSAT CUBESAT 2 23 Jan 08:35:54 08:40:01 58° 100° (E) 08:44:06 437.432
UNISAT 6 23 Jan 08:47:29 08:49:58 15° 67° (ENE) 08:52:28 437.425
HO-68 23 Jan 08:48:01 08:55:02 59° 290° (WNW) 09:02:01 435.675
TIGRISAT 23 Jan 08:59:14 09:02:14 19° 68° (ENE) 09:05:15 435.000
PRISM 23 Jan 09:00:13 09:04:23 81° 77° (ENE) 09:08:34 437.425
Cosmos 2499 23 Jan 09:02:18 09:03:58 11° 281° (WNW) 09:05:37 435.465 / 435.565
Oscar 11 23 Jan 09:04:42 09:08:54 45° 99° (E) 09:13:04 145.826/435.025
CINEMA 3 23 Jan 09:05:53 09:07:25 12° 294° (WNW) 09:08:59 145.822/145.860
ANTELSAT 23 Jan 09:14:28 09:18:12 30° 71° (ENE) 09:21:56 437.575/2403.000
DELFI C3 23 Jan 09:25:47 09:28:59 23° 95° (E) 09:32:09 145.870
CUTE 1.7 + AOD 2 23 Jan 09:32:33 09:33:35 11° 295° (WNW) 09:34:36 437.475
JAS-2 23 Jan 09:33:55 09:37:49 20° 62° (ENE) 09:41:58 435.910
PCSat 23 Jan 09:36:47 09:42:11 66° 62° (ENE) 09:47:34 145.827
CUBEBUG 2 23 Jan 09:37:42 09:41:08 23° 290° (WNW) 09:44:39 437.445
FUNcube-1 23 Jan 09:45:10 09:49:29 53° 285° (WNW) 09:53:52 145.935
HUMSAT D 23 Jan 09:53:15 09:56:57 28° 96° (E) 10:00:39 437.325/437.525
UWE-3 23 Jan 09:59:30 10:02:49 21° 291° (WNW) 10:06:11 435.000/436.395/437.385
ZACube-1 23 Jan 10:10:42 10:14:22 26° 290° (WNW) 10:18:05 437.345
AAUSAT CUBESAT 2 23 Jan 10:14:13 10:14:56 10° 295° (WNW) 10:15:39 437.432
RS-15 23 Jan 10:17:25 10:28:13 39° 255° (WSW) 10:38:39 29.354- 29.394
NANOSAT C BR1 23 Jan 10:17:51 10:19:42 13° 66° (ENE) 10:21:34 145.865
UNISAT 6 23 Jan 10:22:22 10:26:20 39° 262° (W) 10:30:20 437.425
TIGRISAT 23 Jan 10:34:58 10:38:43 30° 263° (W) 10:42:28 435.000
Oscar 11 23 Jan 10:42:15 10:44:36 14° 294° (WNW) 10:46:57 145.826/435.025
ANTELSAT 23 Jan 10:51:56 10:54:56 19° 266° (W) 10:57:56 437.575/2403.000
DELFI C3 23 Jan 11:00:35 11:03:39 22° 290° (WNW) 11:06:42 145.870
QB50P1 23 Jan 11:09:38 11:13:45 57° 75° (ENE) 11:17:52 145.935-145.965
POLYITAN 1 23 Jan 11:14:49 11:18:58 68° 76° (ENE) 11:23:08 437.675
QB50P2 23 Jan 11:16:09 11:20:20 76° 76° (ENE) 11:24:32 145.880/145.840
JAS-2 23 Jan 11:17:19 11:22:24 47° 262° (W) 11:28:02 435.910
PCSat 23 Jan 11:22:12 11:24:56 14° 257° (WSW) 11:27:39 145.827
HUMSAT D 23 Jan 11:29:05 11:32:23 22° 290° (WNW) 11:35:40 437.325/437.525
VELOX 1 23 Jan 11:35:55 11:38:36 16° 94° (E) 11:41:16 145.980
POPSAT HIP 1 23 Jan 11:36:51 11:41:00 66° 258° (WSW) 11:45:11 437.405
ESTCUBE 1 23 Jan 11:37:27 11:41:52 52° 100° (E) 11:46:15 437.505/2401.250
SPROUT 23 Jan 11:40:47 11:42:42 13° 92° (E) 11:44:37 437.525
DUCHIFAT 1 23 Jan 11:43:31 11:47:38 64° 259° (WSW) 11:51:46 145.980
NANOSAT C BR1 23 Jan 11:50:58 11:54:59 46° 260° (W) 11:59:01 145.865
50 SAT 23 Jan 11:55:28 11:57:49 17° 95° (E) 12:00:08 437.505
BY70-1 23 Jan 11:57:32 12:00:13 26° 288° (WNW) 12:02:45 436.1900
DX 1 23 Jan 11:57:57 11:59:42 12° 93° (E) 12:01:27 434.975-435.025
BUGSAT 1 23 Jan 12:04:44 12:08:47 74° 76° (ENE) 12:12:48 437.445
CUBEBUG 1 23 Jan 12:12:29 12:16:49 76° 103° (ESE) 12:21:06 437.445
CUSAT 1 23 Jan 12:20:56 12:24:21 13° 60° (ENE) 12:27:37 437.405
AO-85 23 Jan 12:24:38 12:28:38 26° 113° (ESE) 12:32:24 145.980
